Flag for Mexico Weather past 2 weeks in Mexicali, Baja California, Mexico

Now
71 °F

Sunny.


Feels Like: 76 °F
Forecast: 56 / 72 °F
Wind: 21 mph from West

Location: Imperial County Airport

Current Time: Feb 28, 2015 at 3:58:41 PM

Latest Report: Feb 28, 2015 at 2:53 PM


Visibility: 10 mi

Pressure: 29.78 "Hg

Humidity: 31%

Dew point: 39 °F

Location of MexicaliLocation

Historic Weather in Mexicali — Graph

°F

Mexicali temperature yesterday

Maximum temperature yesterday: 80 °F (at 1:53 PM)
Minimum temperature yesterday: 50 °F (at 5:53 AM)
Average temperature yesterday: 65 °F

Past Weeks' High & Low Weather Summary

 TemperatureHumidityPressure
High85 °F (Feb 19, 2:53 PM)100% (Feb 17, 6:53 AM)30.18 "Hg (Feb 17, 6:53 AM)
Low45 °F (Feb 25, 6:53 AM)13% (Feb 25, 3:53 PM)29.61 "Hg (Feb 27, 2:53 PM)
Average65 °F46%29.92 "Hg
* Reported Feb 13 2:53 PM — Feb 28 2:53 PM, Mexicali, Weather by CustomWeather, © 2015

Note: Actual official high and low records may vary slightly from our data, if they occured in-between our weather recording intervals... More about our weather records

Advertising

Mexicali weather history for previous 24 hours

 ConditionsComfort  
Time TempWeatherWind HumidityBarometerVisibility
2:53 PM
Sat, Feb 28
71 °FSunny.21 mph31%29.78 "Hg10 mi
1:53 PM72 °FSunny.30 mph31%29.76 "Hg10 mi
12:53 PM72 °FLight rain. Sunny.29 mph31%29.78 "Hg10 mi
11:53 AM71 °FLight rain. Scattered clouds.22 mph36%29.81 "Hg10 mi
10:53 AM71 °FLight rain. Sunny.28 mph35%29.82 "Hg10 mi
9:53 AM68 °FSunny.26 mph40%29.82 "Hg10 mi
8:53 AM67 °FSunny.15 mph41%29.81 "Hg10 mi
7:53 AM64 °FSunny.16 mph45%29.79 "Hg10 mi
6:53 AM61 °FSunny.22 mph48%29.77 "Hg10 mi
5:53 AM61 °FLight rain. Clear.21 mph46%29.75 "Hg10 mi
4:53 AM61 °FClear.18 mph50%29.72 "Hg10 mi
3:53 AM61 °FClear.16 mph52%29.70 "Hg10 mi
2:53 AM62 °FClear.20 mph52%29.69 "Hg10 mi
1:53 AM63 °FClear.24 mph50%29.68 "Hg10 mi
12:53 AM63 °FClear.23 mph50%29.68 "Hg10 mi
11:53 PM
Fri, Feb 27
62 °FClear.10 mph54%29.69 "Hg10 mi
10:53 PM64 °FClear.15 mph50%29.70 "Hg10 mi
9:53 PM64 °FClear.23 mph50%29.68 "Hg10 mi
8:53 PM65 °FClear.25 mph47%29.67 "Hg10 mi
7:53 PM66 °FClear.23 mph45%29.67 "Hg10 mi
6:53 PM67 °FClear.25 mph45%29.64 "Hg10 mi
5:53 PM68 °FClear.26 mph44%29.61 "Hg10 mi
4:53 PM71 °FSunny.21 mph41%29.61 "Hg10 mi
3:53 PM75 °FSunny.20 mph34%29.61 "Hg10 mi
Weather by CustomWeather, © 2015

See weather overviewHow to use our weather pages